Погода в Городнем

Украина / Одесская область     45°53′24″N   28°50′48″E
темп.,
°C
ветер,
м/с
пор.,
м/с
влажн.,
%
обл.,
%
осадки,
мм/ч
давл.,
гПа
погр.,
м
5 марта, пт
пт523:00+8юз466887 0.0 1013106
02:00+8з455586 0.0 101288
05:00+7ссз235733 0.0 101224
08:00+7ссв236716 0.0 101294
11:00+12ю225013 0.0 1012458
14:00+15з573626 0.0 10111247
17:00+14зюз4740100 0.0 1010291
20:00+11зюз464759 0.0 1012108
6 марта, сб
сб623:00+7ссз71281100 0.0 1014562
02:00+5ссз8127698 0.0 1018783
05:00+3с81180100 0.0 1020908
08:00+2с81266100 0.0 1024829
11:00+4с7942100 0.0 10261393
14:00+5с7933100 0.0 10261845
17:00+5с68329 0.0 10272052
20:00+2с35529 0.0 1029157
7 марта, вс
вс723:00+1сз34570 0.0 103181
02:00−1сз36660 0.0 1031140
05:00−1ссз22620 0.0 103046
08:000ююз12480 0.0 1029158
11:00+5зюз78410 0.0 10271436
14:00+7зюз68370 0.0 10241460
17:00+7юз68410 0.0 10211441
20:00+4ююз410560 0.0 1021285
8 марта, пн
пн823:00+2ююз49656 0.0 1020243
02:00+1юз377538 0.0 1019160
05:000юз23802 0.0 101834
08:00+2сз00621 0.0 101871
11:00+7в344060 0.0 1017815
14:00+8юв323574 0.0 10151174
17:00+8ююз443993 0.0 10141145
20:00+5ююв235347 0.0 101522
9 марта, вт
вт923:00+4юв1169100 0.0 101522
02:00+3с226892 0.0 101624
05:00+1с511670 0.0 1017329
08:00+1с710770 0.0 1019535
11:00+4с784530 0.0 1021942
14:00+6с564015 0.0 10201350
17:00+5ссв56370 0.0 10201343
20:00+2ссв48490 0.0 1022360